Terug naar catalogus

STARLINK-31213

ActiefCommunicatieVLEO
NORAD 58860·PAYLOAD·🇺🇸 United States

Gelanceerd Jan 29, 2024 vanaf Cape Canaveral Space Force Station

Loading…

Volgende Passages (komende 24 uur)

TLE

VersSource: CelesTrak SupGP

Epoch: Sep 15, 2026, 02:53 UTC

1 58860C 24019H   26258.12062500 -.00019656  00000+0 -71208-3 0  2589
2 58860  43.0021 259.0682 0001192 264.1741 107.7452 15.27581766    14

Volg STARLINK-31213 in realtime met AllMySat

Download on the App Store